Location: Anywhere
(41.5000°N, 71.4000°W)
Time: 18:04:56
(UTC-04:00)

N. Korean satellite - Visible Passes

Search period start: 30 September 2022 00:00
Search period end: 10 October 2022 00:00
Orbit: 427 x 468 km, 97.3° (Epoch: 30 September)

Date Brightness Start Highest point End Pass type
(mag) Time Alt. Az. Time Alt. Az. Time Alt. Az.
30 Sep 6.2 06:09:42 10° N 06:12:59 75° WNW 06:16:13 10° SSW visible
01 Oct 8.4 05:34:12 10° NNE 05:37:10 31° E 05:40:05 10° SSE visible
02 Oct 10.0 05:00:23 10° ENE 05:01:07 11° E 05:01:52 10° ESE visible
03 Oct 6.8 05:54:57 10° NNE 05:58:12 64° E 06:01:26 10° S visible
04 Oct 9.3 05:19:43 10° NE 05:22:11 20° E 05:24:39 10° SE visible
05 Oct 6.3 06:15:46 10° N 06:19:00 60° WNW 06:22:13 10° SSW visible
06 Oct 8.0 05:39:55 10° NNE 05:43:00 37° E 05:46:04 10° SSE visible
07 Oct 9.8 05:05:17 10° ENE 05:06:47 13° E 05:08:16 10° ESE visible
08 Oct 6.5 06:00:18 10° NNE 06:03:34 78° E 06:06:51 10° S visible
09 Oct 9.0 05:24:41 10° NE 05:27:22 23° E 05:30:03 10° SSE visible
